Miscellaneous Local Product
Issued by NWS Hastings, NE

Home | Current Version | Previous Version | Text Only | Print | Product List | Glossary Off
Versions: 1 2 3 4 5 6 7 8 9 10 11 12 13 14 15 16 17 18 19 20 21 22 23 24 25 26 27 28 29 30 31 32 33 34 35 36 37 38 39 40 41 42 43 44 45 46 47 48 49 50

000
AXUS43 KGID 251602
MISGRI

GID CWA HOURLY WEATHER ROUNDUP
NATIONAL WEATHER SERVICE HASTINGS NE
1000 AM CST WED FEB 25 2015

NOTE: "FAIR" INDICATES FEW OR NO CLOUDS BELOW 12,000 FEET WITH NO
SIGNIFICANT WEATHER AND/OR OBSTRUCTIONS TO VISIBILITY.

...SOUTH CENTRAL NEBRASKA...

CITY           SKY/WX    TMP DP  RH WIND       PRES   REMARKS
GRAND ISLAND   LGT RAIN  37  31  78 W6        29.73R WCI  32
HASTINGS       CLOUDY    42  27  55 W10       29.72S
KEARNEY        PTSUNNY   41  32  70 NW12      29.74R
ORD            CLOUDY    36  26  67 NW24G31   29.76R WCI  24
YORK           PTSUNNY   39  27  60 W12       29.72S WCI  32
AURORA         DRIZZLE   42  29  59 W10       29.72S
LEXINGTON      CLOUDY    44  33  66 NW15      29.76R
HOLDREGE       CLOUDY    44  31  61 NW14      29.74R
HEBRON         PTSUNNY   43  25  48 W12       29.74F

...NEBRASKA PANHANDLE...

CITY           SKY/WX    TMP DP  RH WIND       PRES   REMARKS
CHADRON        LGT SNOW  34  31  88 NE8       29.90R FOG     WCI  27
ALLIANCE       PTSUNNY   36  33  89 N12       29.85R WCI  28
SCOTTSBLUFF    CLOUDY    38  32  79 NW18G26   29.89R WCI  28
SIDNEY         LGT RAIN  38  32  79 N22G32    29.87R WCI  27

...WESTERN AND NORTH CENTRAL NEBRASKA...

CITY           SKY/WX    TMP DP  RH WIND       PRES   REMARKS
VALENTINE      LGT SNOW  31  27  85 N15       29.83R FOG     WCI  20
AINSWORTH      CLOUDY    29  25  86 N15       29.83R WCI  18
ONEILL         LGT SNOW  28  26  92 N20       29.80R WCI  14
BROKEN BOW     FLURRIES  37  30  75 N18G33    29.78R WCI  27
IMPERIAL         N/A     42  34  73 NW22G29   29.81R
NORTH PLATTE   CLOUDY    42  31  64 N20G28    29.81R
MCCOOK         CLOUDY    46  33  60 NW14      29.79R

...EASTERN NEBRASKA...

CITY           SKY/WX    TMP DP  RH WIND       PRES   REMARKS
NORFOLK        MIX PCPN  33  30  88 NW22      29.72R WCI  21
SO SIOUX CITY  CLOUDY    24  20  84 NE18G25   29.76R FOG     WCI  10
TEKAMAH        CLOUDY    40  29  64 S9        29.70F WCI  34
COLUMBUS       CLOUDY    37  27  65 W10       29.72R WCI  30
ALBION         LGT RAIN  35  28  75 NW18      29.74R WCI  25
OMAHA EPPLEY   CLOUDY    39  26  59 S10       29.71F WCI  32
OFFUTT AFB     CLOUDY    39  27  60 VRB5      29.71F
MILLARD        CLOUDY    41  27  57 CALM      29.71S
LINCOLN        CLOUDY    42  27  55 SW12      29.74R
NEBRASKA CITY  CLOUDY    44  21  40 SW16      29.73F
BEATRICE       PTSUNNY   45  28  52 S14       29.74F
FALLS CITY     CLOUDY    44  27  51 S8        29.79S

...NORTHERN KANSAS...

CITY           SKY/WX    TMP DP  RH WIND       PRES   REMARKS
GOODLAND       CLOUDY    37  34  89 NW13      29.83S WCI  29
HILL CITY      MOSUNNY   47  31  53 NW20G25   29.77R
NORTON         CLOUDY    41  27  56 NW15      29.76
PHILLIPSBURG   PTSUNNY   46  28  49 NW8       29.77R
SMITH CENTER   SUNNY     34  25  69 W3        29.77F
BELOIT         SUNNY     39  27  60 S5        29.77S
HAYS           PTSUNNY   39  23  52 W8        29.77F WCI  34
RUSSELL        MOSUNNY   37  29  72 SW13      29.76F WCI  29
CONCORDIA      MOSUNNY   47  27  45 SW15      29.76F
SALINA         SUNNY     42  29  59 S8        29.80F
TOPEKA         SUNNY     44  27  51 S9        29.82F



USA.gov is the U.S. government's official web portal to all federal, state and local government web resources and services.